Regional Weather Roundup
Issued by NWS Charleston, SC

Current Version | Previous Version | Graphics & Text | Print | Product List | Glossary On
Versions: 1 2 3 4 5 6 7 8 9 10 11 12 13 14 15 16 17 18 19 20 21 22 23 24 25 26 27 28 29 30 31 32 33 34 35 36 37 38 39 40 41 42 43 44 45 46 47 48 49 50
000
ASUS42 KCHS 261612
RWRCHS

REGIONAL WEATHER ROUNDUP
NATIONAL WEATHER SERVICE CHARLESTON SC
1200 PM EDT SUN MAR 26 2017

NOTE: "FAIR" INDICATES FEW OR NO CLOUDS BELOW 12,000 FEET WITH NO
SIGNIFICANT WEATHER AND/OR OBSTRUCTIONS TO VISIBILITY.

NOT ALL STATIONS ARE QUALITY CONTROLLED. USE DATA WITH CAUTION...
ESPECIALLY DEWPOINT OBSERVATIONS.

SCZ027-030-031-034>040-042>050-261700-
...SOUTHEAST SOUTH CAROLINA...

CITY           SKY/WX    TMP DP  RH WIND       PRES   REMARKS
N CHARLESTON   MOSUNNY   77  51  40 S12G18    30.22R
WATERFRONT PRK   N/A     68  60  75 SE7       30.20F
JOHNS ISLAND   FAIR      75  55  50 S8        30.22S
PINOPOLIS        N/A     73  55  53 SE5       30.14S
MONCKS CORNER  PTSUNNY   73  50  43 SE7       30.22S
SUMMERVILLE    PTSUNNY   73  54  49 S3        30.22S
BEAUFORT MCAS  MOSUNNY   75  61  61 SE10      30.22R
BEAUFORT ARPT  FAIR      75  59  57 S8        30.22R
HILTON HEAD IS SUNNY     73  61  64 SE6       30.22R
WALTERBORO     PTSUNNY   75  55  50 S12       30.22S
ALLENDALE      FAIR      75  57  53 S8G16     30.19F

...SOUTHERN MIDLANDS AND PEE DEE...

CITY           SKY/WX    TMP DP  RH WIND       PRES   REMARKS
GEORGETOWN     CLOUDY    72  54  53 S10       30.24S
KINGSTREE      PTSUNNY   75  52  43 S8        30.22F
ORANGEBURG     MOSUNNY   73  56  54 S12G18    30.21F
BARNWELL       FAIR      75  59  57 S10G17    30.19F
AIKEN          FAIR      72  57  60 S7G17     30.22F
MANNING        PTSUNNY   72  54  53 SW8       30.22F
COLUMBIA       PTSUNNY   74  55  51 S15G22    30.19F
SUMTER         PTSUNNY   73  55  52 S9        30.19F
FLORENCE       CLOUDY    74  55  51 S10       30.22F
MYRTLE BEACH   PTSUNNY   73  54  49 S9        30.24F
N MYRTLE BEACH PTSUNNY   71  57  61 SE7       30.24S

$$

GAZ063-065-086>088-099>101-113>116-118-119-134>141-150-261700-
...SOUTHEAST GEORGIA...

CITY           SKY/WX    TMP DP  RH WIND       PRES   REMARKS
SAVANNAH ARPT  PTSUNNY   76  57  51 S13       30.20F
HUNTER AAF     MOSUNNY   77  63  62 SE14G20   30.17F
FORT STEWART   MOSUNNY   77  57  50 S8        30.17F
STATESBORO     MOSUNNY   77  62  59 S15       30.19F
SYLVANIA       MOSUNNY  N/A N/A N/A S9        30.20F
CLAXTON        FAIR     N/A N/A N/A S5        30.19S

...CSRA...CENTRAL AND FAR SOUTHEAST GEORGIA...

CITY           SKY/WX    TMP DP  RH WIND       PRES   REMARKS
THOMSON        CLOUDY    69  58  68 W8        30.22F
AUGUSTA-BUSH   CLOUDY    74  59  59 SW10      30.17F
AUGUSTA-DANIEL CLOUDY    73  55  53 S15       30.18F
SWAINSBORO     CLOUDY    73  55  53 S13       30.19S
VIDALIA        CLOUDY    75  55  50 SW12      30.19S
EASTMAN        PTSUNNY   75  50  41 S8        30.19F
HAZLEHURST     FAIR      75  62  63 S5        30.17S
ALMA           MOSUNNY   77  59  53 S12       30.18S
WAYCROSS       PTSUNNY   80  62  54 S6        30.18S
JESUP          FAIR      79  54  41 SE7       30.18F
BAXLEY         CLOUDY    77  61  57 S9        30.18S
BRUNSWICK      PTSUNNY   77  63  61 SE7       30.20S
SAINT SIMONS   SUNNY     74  60  61 SE6       30.20R

$$

SCZ027-028-034-036>038-045-046-048>050-GAZ119-141-261700-
...LAKE AND SUPPLEMENTAL COASTAL OBSERVATIONS...

STATION/POSITION TIME  TEMP    WIND        PRES    WAVE   SWELL
                       AIR SEA DIR/SP/G            HT/PER HT/PER/DIR
                 (UTC) (F)     (DEG/KT/KT) (MB)    (FT/S) (FT/S/D)
WINYAH BAY       1445   70     140/  4     1024.0
LAKE MURRAY      1520   66     160/  5/  7 1022.4
ACE BASIN NERRS  1445   74     150/  2     1023.0
FORT PULASKI     1548   72 62  170/  6/  9 1023.4R
SAPELO ISLAND    1500   74     160/  8     1023.0

$$

ANZ835-935-AMZ111-154-330-350-352-354-370-450-454-472-261700-
...C-MAN AND BUOY OBSERVATIONS...

STATION/POSITION TIME  TEMP    WIND        PRES    WAVE   SWELL
                       AIR SEA DIR/SP/G            HT/PER HT/PER/DIR
                 (UTC) (F)     (DEG/KT/KT) (MB)    (FT/S) (FT/S/D)
BUOY 41004       1450   72 72  140/ 14/ 17 1022.8    4/ 8   3/130/ 8
BUOY 41008       1450   65 63  220/  4/  4 1022.4    4/ 8   3/110/ 8
FOLLY BEACH CMAN 1500   66      90/  3/  3 1023.9R
CAPERS NEARSHORE 1508   65      90/  2/  6 1023.5R
FRIPP NEARSHORE  1508   64 61  120/  4/  6 1022.9R


STATION/POSITION TIME  TEMP    WIND        PRES    WAVE   SWELL
                       AIR SEA DIR/SP/G            HT/PER HT/PER/DIR
                 (UTC) (F)     (DEG/KT/KT) (MB)    (FT/S) (FT/S/D)
5E ST. MARYS GA  1530      65                N/A     3/ 9   2/110/11
FRYING PAN BUOY  1550   71 74  140/ 14/ 17 1024.0F   4/ 8   2/140/ 8
BUOY 41025       1550   69 74  160/ 10/ 12 1025.8F   3/ 8   2/170/ 8
CAPE LOOKOUT NC  1500   69     130/  3/  4 1025.2R
BUOY 41002       1550   68 72   90/ 12/ 16 1025.0F   5/10   3/140/10
BUOY 41010       NOT AVBL
ST AUGUSTINE FL  1600   69 68   70/  7/  7 1023.0R


$$




USA.gov is the U.S. government's official web portal to all federal, state and local government web resources and services.